STARLINK-33834 (63586 NORAD) Tracking and Keplerian Element Data

This shows tracking and keplerian element data for the satellite.

Feedback or suggestion? Click here.




ElementValue
Catalog63586
NameSTARLINK-33834
Epoch Orbit3967
Epoch Day354.20320069
Epoch Year2025
RAAN50.6227
Inclination43.0006
Eccentricity5.04E-05
Argument of Perigee290.7416
Mean Anonmoly69.3382
Mean Motion15.27597577
Decay Rate0.0001844
L11 63586U 25076T 25354.20320069 .00018440 00000+0 67759-3 0 9992
L22 63586 43.0006 50.6227 0000504 290.7416 69.3382 15.27597577 39674



Live tracking and technical data element details for STARLINK-33834 (NORAD 63586). STARLINK-33834 can be tracked NOW for your location showing map with azimuth and elevation plus other details from your city location.







IsCatalogInMostPopularTable: catalog: 63586, numindb: 2
Update: records affected: 1



GetName: 63586 STARLINK-33834

Hit Count: updated at: Sun, 08 Feb 2026 07:40:21 GMT